Regional Weather Roundup
Issued by NWS Sioux Falls, SD

Home | Current Version | Previous Version | Text Only | Print | Product List | Glossary Off
Versions: 1 2 3 4 5 6 7 8 9 10 11 12 13 14 15 16 17 18 19 20 21 22 23 24 25 26 27 28 29 30 31 32 33 34 35 36 37 38 39 40 41 42 43 44 45 46 47 48 49 50

000
ASUS43 KFSD 272310
RWRFSD

WEATHER ROUNDUP FOR SE SOUTH DAKOTA/SW MINNESOTA/NW IOWA
NATIONAL WEATHER SERVICE SIOUX FALLS SD
600 PM CDT THU AUG 27 2015

NOTE: "FAIR" INDICATES FEW OR NO CLOUDS BELOW 12,000 FEET WITH NO
SIGNIFICANT WEATHER AND OR OBSTRUCTIONS TO VISIBILITY.


SDZ038>040-050-052>070-280000-
SOUTHEAST SOUTH DAKOTA

CITY           SKY/WX    TMP DP  RH WIND       PRES   REMARKS
BROOKINGS      CLOUDY    73  66  78 SE8       30.01R
CHAMBERLAIN    CLOUDY    75  69  80 E9        29.91R
HURON          CLOUDY    77  70  79 E10       29.92S
MADISON        FAIR      73  68  83 E13G18    29.98F
MITCHELL       PTSUNNY   78  67  68 SE16      29.91S
SIOUX FALLS    TSTM      71  68  90 SE8       29.97F
WINNER         LGT RAIN  76  70  82 E10       29.90F
YANKTON        CLOUDY    79  68  69 SE9       29.91R
$$

MNZ071-072-080-081-089-090-097-098-280000-
SOUTHWEST MINNESOTA

CITY           SKY/WX    TMP DP  RH WIND       PRES   REMARKS
FAIRMONT       CLOUDY    70  57  64 S8        30.03F
JACKSON        MOSUNNY   70  63  78 SE10      30.04F
LUVERNE        PTSUNNY   72  66  83 CALM      30.02R
MARSHALL       CLOUDY    73  64  73 S7        29.99S
MONTEVIDEO     CLOUDY    73  66  78 S3        29.98S
PIPESTONE      PTSUNNY   73  64  73 SE8       30.01R
REDWOOD FALLS  CLOUDY    68  65  90 SE9       29.98F
TRACY          CLOUDY    75  68  79 S8        29.99S
WINDOM         PTSUNNY   70  63  78 SE12      30.03S
WORTHINGTON    CLOUDY    70  63  78 E5        30.05R
$$

IAZ001>003-012>014-020>022-031-032-NEZ013-014-SDZ071-280000-
NORTHWEST IOWA

CITY           SKY/WX    TMP DP  RH WIND       PRES   REMARKS
CHEROKEE       SUNNY     77  68  74 E7        29.96F
DENISON        PTSUNNY   77  70  78 SE6       29.93F
ESTHERVILLE    MOSUNNY   69  61  75 E8        30.03F
LE MARS        MOSUNNY   79  70  73 SE8G15    29.94R
ORANGE CITY    MOSUNNY   75  68  78 E10       29.96S
SHELDON        CLOUDY    73  66  78 E9        29.98R
SIOUX CITY     CLOUDY    78  67  68 SE10      29.90F
SPENCER        SUNNY     71  62  73 E12       30.01S HAZE
STORM LAKE     MOSUNNY   75  66  73 E9        29.99S
$$

ABBREVIATIONS USED IN REMARKS
   TC - TEMPERATURE IN CELSIUS
  WCI - WIND CHILL INDEX
   HX - HEAT INDEX
  VSB - VISIBILITY



USA.gov is the U.S. government's official web portal to all federal, state and local government web resources and services.